Tracking 27188 objects as of 1-Apr-2023
HD Live streaming from Space Station
objects crossing your sky now

STARLINK-4288

Track STARLINK-4288 now!
10-day predictions
STARLINK-4288 is classified as:


NORAD ID: 53005
Int'l Code: 2022-076V
Perigee: 545.8 km
Apogee: 547.9 km
Inclination: 53.2 °
Period: 95.4 minutes
Semi major axis: 6917 km
RCS: Unknown
Launch date: July 7, 2022
Source: United States (US)
Launch site: AIR FORCE EASTERN TEST RANGE (AFETR)
Your satellite tracking list
Your tracking list is empty




NASA's NSSDC Master Catalog

Two Line Element Set (TLE):
1 53005U 22076V   23090.57718183  .00020080  00000-0  12757-2 0  9998
2 53005  53.2130 236.0000 0001529  80.0581 280.0584 15.08852896 41160
Source of the keplerian elements: AFSPC